This is the latest recevied weather packets stored in our database for station/object KD5HIA. If no packets are shown the sender has not sent any weather packets the latest 10 day(s).
| Time | Temp. | Humidity | Pressure | Rain* | Wind** | Luminosity | Snow |
|---|---|---|---|---|---|---|---|
| 1778166616 | 13.33° C | 74% | 1019.7 hPa | 0 mm | - | 211 W/m² | - |
| 1778166016 | 13.33° C | 74% | 1020 hPa | 0 mm | - | 197 W/m² | - |
| 1778165416 | 13.33° C | 75% | 1019.8 hPa | 0 mm | - | 185 W/m² | - |
| 1778164816 | 13.33° C | 75% | 1019.5 hPa | 0 mm | - | 178 W/m² | - |
| 1778164216 | 13.33° C | 76% | 1019.5 hPa | 0 mm | - | 156 W/m² | - |
| 1778163616 | 12.78° C | 78% | 1019.9 hPa | 0 mm | - | 138 W/m² | - |
| 1778163016 | 12.78° C | 79% | 1019.9 hPa | 0 mm | - | 108 W/m² | - |
| 1778162416 | 12.78° C | 80% | 1019.8 hPa | 0 mm | - | 115 W/m² | - |
| 1778161816 | 12.78° C | 81% | 1020.3 hPa | 0 mm | - | 112 W/m² | - |
| 1778161216 | 12.22° C | 81% | 1020.3 hPa | 0 mm | - | 80 W/m² | - |
| 1778160617 | 12.22° C | 82% | 1020.2 hPa | 0 mm | - | 74 W/m² | - |
| 1778160016 | 12.22° C | 83% | 1020.3 hPa | 0 mm | - | 71 W/m² | - |
| 1778159417 | 12.22° C | 82% | 1020.2 hPa | 0 mm | - | 72 W/m² | - |
| 1778158816 | 12.22° C | 83% | 1020 hPa | 0 mm | - | 90 W/m² | - |
| 1778158216 | 12.22° C | 83% | 1020.3 hPa | 0 mm | - | 73 W/m² | - |
| 1778157616 | 12.22° C | 83% | 1020.1 hPa | 0 mm | - | 69 W/m² | - |
| 1778157016 | 11.67° C | 83% | 1020 hPa | 0 mm | - | 38 W/m² | - |
| 1778156416 | 12.22° C | 83% | 1020 hPa | 0 mm | - | 23 W/m² | - |
| 1778155816 | 12.22° C | 82% | 1019.8 hPa | 0 mm | - | 6 W/m² | - |
| 1778155216 | 12.22° C | 82% | 1019.9 hPa | 0 mm | - | 0 W/m² | - |
| 1778154616 | 12.78° C | 81% | 1019.8 hPa | 0 mm | - | 0 W/m² | - |
| 1778154016 | 12.78° C | 81% | 1019.8 hPa | 0 mm | - | 0 W/m² | - |
| 1778153416 | 12.78° C | 81% | 1019.6 hPa | 0 mm | - | 0 W/m² | - |
| 1778152816 | 12.78° C | 82% | 1019.5 hPa | 0 mm | - | 0 W/m² | - |
| 1778152216 | 12.78° C | 82% | 1019.3 hPa | 0 mm | - | 0 W/m² | - |
* Rain latest hour (hover to see other rain measurements)
** Current wind speed in m/s (hover to see current wind gust speed)